Regional Weather Roundup
Issued by NWS Nashville, TN

Home | Current Version | Previous Version | Text Only | Print | Product List | Glossary On
Versions: 1 2 3 4 5 6 7 8 9 10 11 12 13 14 15 16 17 18 19 20 21 22 23 24 25 26 27 28 29 30 31 32 33 34 35 36 37 38 39 40 41 42 43 44 45 46 47 48 49 50
071
ASUS44 KOHX 261710
RWROHX
MIDDLE TENNESSEE HOURLY WEATHER ROUNDUP
NATIONAL WEATHER SERVICE NASHVILLE TN
1200 PM CDT SUN MAR 26 2017

NOTE: "FAIR" INDICATES FEW OR NO CLOUDS BELOW 12,000 FEET WITH
NO SIGNIFICANT WEATHER AND/OR OBSTRUCTIONS TO VISIBILITY.

* THESE REPORTS ARE NOT UNDER NWS QUALITY CONTROL AND MAY NOT
  REPORT WEATHER SUCH AS PRECIPITATION AND FOG.


TNZ005>011-023>034-057-059-062>066-078-080-261800
...NORTHERN MIDDLE TENNESSEE...

CITY           SKY/WX    TMP DP  RH WIND       PRES   REMARKS
CLARKSVILLE    CLOUDY    62  56  80 S13       29.99S
CROSSVILLE     CLOUDY    58  56  93 VRB6      30.06F
GALLATIN       CLOUDY    68  57  68 S8G17     30.03F
NASHVILLE      PTSUNNY   68  56  65 S15G21    30.00F
PORTLAND       CLOUDY    64  57  77 S14G20    30.00F
SMYRNA         PTSUNNY   67  58  72 S13G20    30.02F
SPARTA         CLOUDY    63  59  88 S8        30.03F
SPRINGFIELD    CLOUDY    64  57  77 SW7G16    29.98F
WEST NASHVILLE MOSUNNY   66  55  68 S9        29.99F
$$
TNZ056-058-060-061-075>077-079-093>097-261800
...SOUTHERN MIDDLE TENNESSEE...

CITY           SKY/WX    TMP DP  RH WIND       PRES   REMARKS
COLUMBIA       CLOUDY    64  64 100 S14       30.01S
FAYETTEVILLE   PTSUNNY   61  61 100 S8        30.05F FOG
MCMINNVILLE      N/A     61  61 100 SW6       30.05S
SHELBYVILLE    CLOUDY    63  61  94 S13       30.05S
TULLAHOMA      CLOUDY    59  59 100 SW7       30.06F
WINCHESTER     CLOUDY    63  57  82 S9        30.06S
$$


...KEY TO REMARKS...
VSB - VISIBILITY IN MILES
WCI - WIND CHILL INDEX
HX  - HEAT INDEX





USA.gov is the U.S. government's official web portal to all federal, state and local government web resources and services.